Year,Month,Day,Hour,Minute,Value (Times are PST for temperature in C)
2014,07,05,00,00,14.30
2014,07,05,00,01,14.30
2014,07,05,00,02,14.30
2014,07,05,00,03,14.30
2014,07,05,00,04,14.30
2014,07,05,00,05,14.30
2014,07,05,00,06,14.30
2014,07,05,00,07,14.30
2014,07,05,00,08,14.30
2014,07,05,00,09,14.20
2014,07,05,00,10,14.20
2014,07,05,00,11,14.20
2014,07,05,00,12,14.20
2014,07,05,00,13,14.10
2014,07,05,00,14,14.10
2014,07,05,00,15,14.10
2014,07,05,00,16,14.10
2014,07,05,00,17,14.00
2014,07,05,00,18,14.00
2014,07,05,00,19,14.00
2014,07,05,00,20,13.90
2014,07,05,00,21,13.90
2014,07,05,00,22,13.90
2014,07,05,00,23,13.80
2014,07,05,00,24,13.80
2014,07,05,00,25,13.80
2014,07,05,00,26,13.80
2014,07,05,00,27,13.80
2014,07,05,00,28,13.80
2014,07,05,00,29,13.70
2014,07,05,00,30,13.70
2014,07,05,00,31,13.70
2014,07,05,00,32,13.70
2014,07,05,00,33,13.70
2014,07,05,00,34,13.70
2014,07,05,00,35,13.70
2014,07,05,00,36,13.70
2014,07,05,00,37,13.60
2014,07,05,00,38,13.60
2014,07,05,00,39,13.60
2014,07,05,00,40,13.60
2014,07,05,00,41,13.60
2014,07,05,00,42,13.60
2014,07,05,00,43,13.60
2014,07,05,00,44,13.60
2014,07,05,00,45,13.60
2014,07,05,00,46,13.60
2014,07,05,00,47,13.50
2014,07,05,00,48,13.60
2014,07,05,00,49,13.60
2014,07,05,00,50,13.50
2014,07,05,00,51,13.60
2014,07,05,00,52,13.50
2014,07,05,00,53,13.50
2014,07,05,00,54,13.50
2014,07,05,00,55,13.50
2014,07,05,00,56,13.40
2014,07,05,00,57,13.40
2014,07,05,00,58,13.40
2014,07,05,00,59,13.40
2014,07,05,01,00,13.40
2014,07,05,01,01,13.40
2014,07,05,01,02,13.40
2014,07,05,01,03,13.40
2014,07,05,01,04,13.40
2014,07,05,01,05,13.40
2014,07,05,01,06,13.30
2014,07,05,01,07,13.30
2014,07,05,01,08,13.30
2014,07,05,01,09,13.30
2014,07,05,01,10,13.30
2014,07,05,01,11,13.30
2014,07,05,01,12,13.30
2014,07,05,01,13,13.30
2014,07,05,01,14,13.30
2014,07,05,01,15,13.20
2014,07,05,01,16,13.20
2014,07,05,01,17,13.20
2014,07,05,01,18,13.20
2014,07,05,01,19,13.20
2014,07,05,01,20,13.20
2014,07,05,01,21,13.20
2014,07,05,01,22,13.10
2014,07,05,01,23,13.10
2014,07,05,01,24,13.10
2014,07,05,01,25,13.10
2014,07,05,01,26,13.10
2014,07,05,01,27,13.10
2014,07,05,01,28,13.10
2014,07,05,01,29,13.00
2014,07,05,01,30,13.00
2014,07,05,01,31,13.00
2014,07,05,01,32,12.90
2014,07,05,01,33,12.90
2014,07,05,01,34,12.90
2014,07,05,01,35,12.90
2014,07,05,01,36,12.90
2014,07,05,01,37,12.90
2014,07,05,01,38,12.90
2014,07,05,01,39,12.90
2014,07,05,01,40,12.90
2014,07,05,01,41,12.80
2014,07,05,01,42,12.80
2014,07,05,01,43,12.80
2014,07,05,01,44,12.80
2014,07,05,01,45,12.80
2014,07,05,01,46,12.80
2014,07,05,01,47,12.80
2014,07,05,01,48,12.80
2014,07,05,01,49,12.80
2014,07,05,01,50,12.80
2014,07,05,01,51,12.70
2014,07,05,01,52,12.70
2014,07,05,01,53,12.70
2014,07,05,01,54,12.70
2014,07,05,01,55,12.70
2014,07,05,01,56,12.70
2014,07,05,01,57,12.60
2014,07,05,01,58,12.60
2014,07,05,01,59,12.60
2014,07,05,02,00,12.60
2014,07,05,02,01,12.60
2014,07,05,02,02,12.60
2014,07,05,02,03,12.50
2014,07,05,02,04,12.50
2014,07,05,02,05,12.50
2014,07,05,02,06,12.50
2014,07,05,02,07,12.50
2014,07,05,02,08,12.40
2014,07,05,02,09,12.40
2014,07,05,02,10,12.40
2014,07,05,02,11,12.40
2014,07,05,02,12,12.40
2014,07,05,02,13,12.40
2014,07,05,02,14,12.40
2014,07,05,02,15,12.40
2014,07,05,02,16,12.40
2014,07,05,02,17,12.30
2014,07,05,02,18,12.30
2014,07,05,02,19,12.30
2014,07,05,02,20,12.30
2014,07,05,02,21,12.30
2014,07,05,02,22,12.30
2014,07,05,02,23,12.30
2014,07,05,02,24,12.30
2014,07,05,02,25,12.30
2014,07,05,02,26,12.30
2014,07,05,02,27,12.30
2014,07,05,02,28,12.30
2014,07,05,02,29,12.30
2014,07,05,02,30,12.30
2014,07,05,02,31,12.30
2014,07,05,02,32,12.30
2014,07,05,02,33,12.30
2014,07,05,02,34,12.30
2014,07,05,02,35,12.40
2014,07,05,02,36,12.40
2014,07,05,02,37,12.30
2014,07,05,02,38,12.40
2014,07,05,02,39,12.40
2014,07,05,02,40,12.40
2014,07,05,02,41,12.40
2014,07,05,02,43,12.40
2014,07,05,02,44,12.40
2014,07,05,02,45,12.40
2014,07,05,02,46,12.40
2014,07,05,02,47,12.40
2014,07,05,02,48,12.40
2014,07,05,02,49,12.40
2014,07,05,02,50,12.40
2014,07,05,02,51,12.40
2014,07,05,02,52,12.40
2014,07,05,02,53,12.40
2014,07,05,02,54,12.40
2014,07,05,02,55,12.40
2014,07,05,02,56,12.40
2014,07,05,02,57,12.40
2014,07,05,02,58,12.40
2014,07,05,02,59,12.40
2014,07,05,03,00,12.40
2014,07,05,03,02,12.40
2014,07,05,03,03,12.40
2014,07,05,03,04,12.40
2014,07,05,03,05,12.40
2014,07,05,03,06,12.40
2014,07,05,03,07,12.40
2014,07,05,03,08,12.40
2014,07,05,03,09,12.40
2014,07,05,03,10,12.40
2014,07,05,03,11,12.40
2014,07,05,03,12,12.40
2014,07,05,03,13,12.50
2014,07,05,03,14,12.50
2014,07,05,03,15,12.50
2014,07,05,03,17,12.50
2014,07,05,03,19,12.50
2014,07,05,03,20,12.50
2014,07,05,03,21,12.50
2014,07,05,03,22,12.50
2014,07,05,03,23,12.50
2014,07,05,03,24,12.50
2014,07,05,03,26,12.50
2014,07,05,03,27,12.50
2014,07,05,03,28,12.60
2014,07,05,03,29,12.60
2014,07,05,03,30,12.60
2014,07,05,03,31,12.60
2014,07,05,03,32,12.60
2014,07,05,03,33,12.60
2014,07,05,03,34,12.60
2014,07,05,03,35,12.60
2014,07,05,03,36,12.60
2014,07,05,03,37,12.60
2014,07,05,03,38,12.60
2014,07,05,03,39,12.60
2014,07,05,03,40,12.60
2014,07,05,03,41,12.60
2014,07,05,03,42,12.60
2014,07,05,03,43,12.60
2014,07,05,03,44,12.60
2014,07,05,03,45,12.60
2014,07,05,03,46,12.60
2014,07,05,03,47,12.60
2014,07,05,03,48,12.60
2014,07,05,03,49,12.60
2014,07,05,03,50,12.60
2014,07,05,03,51,12.60
2014,07,05,03,52,12.60
2014,07,05,03,53,12.60
2014,07,05,03,54,12.60
2014,07,05,03,55,12.60
2014,07,05,03,56,12.60
2014,07,05,03,57,12.60
2014,07,05,03,58,12.60
2014,07,05,03,59,12.60
2014,07,05,04,00,12.60
2014,07,05,04,01,12.60
2014,07,05,04,02,12.60
2014,07,05,04,03,12.60
2014,07,05,04,04,12.60
2014,07,05,04,05,12.60
2014,07,05,04,06,12.60
2014,07,05,04,07,12.60
2014,07,05,04,08,12.60
2014,07,05,04,09,12.70
2014,07,05,04,10,12.70
2014,07,05,04,11,12.70
2014,07,05,04,12,12.70
2014,07,05,04,13,12.60
2014,07,05,04,14,12.70
2014,07,05,04,15,12.60
2014,07,05,04,16,12.70
2014,07,05,04,17,12.60
2014,07,05,04,18,12.70
2014,07,05,04,19,12.60
2014,07,05,04,20,12.70
2014,07,05,04,21,12.70
2014,07,05,04,22,12.70
2014,07,05,04,23,12.70
2014,07,05,04,24,12.60
2014,07,05,04,25,12.60
2014,07,05,04,26,12.60
2014,07,05,04,27,12.60
2014,07,05,04,28,12.60
2014,07,05,04,29,12.60
2014,07,05,04,30,12.70
2014,07,05,04,31,12.60
2014,07,05,04,32,12.60
2014,07,05,04,33,12.60
2014,07,05,04,34,12.60
2014,07,05,04,35,12.60
2014,07,05,04,36,12.60
2014,07,05,04,37,12.60
2014,07,05,04,38,12.60
2014,07,05,04,39,12.60
2014,07,05,04,40,12.60
2014,07,05,04,41,12.60
2014,07,05,04,42,12.60
2014,07,05,04,43,12.70
2014,07,05,04,44,12.70
2014,07,05,04,45,12.60
2014,07,05,04,46,12.60
2014,07,05,04,47,12.60
2014,07,05,04,48,12.60
2014,07,05,04,49,12.60
2014,07,05,04,50,12.60
2014,07,05,04,51,12.60
2014,07,05,04,52,12.60
2014,07,05,04,53,12.60
2014,07,05,04,54,12.60
2014,07,05,04,55,12.60
2014,07,05,04,56,12.60
2014,07,05,04,57,12.60
2014,07,05,04,58,12.60
2014,07,05,04,59,12.60
2014,07,05,05,00,12.60
2014,07,05,05,01,12.60
2014,07,05,05,02,12.60
2014,07,05,05,03,12.60
2014,07,05,05,04,12.60
2014,07,05,05,05,12.60
2014,07,05,05,06,12.60
2014,07,05,05,07,12.60
2014,07,05,05,08,12.60
2014,07,05,05,09,12.60
2014,07,05,05,10,12.60
2014,07,05,05,11,12.60
2014,07,05,05,13,12.60
2014,07,05,05,14,12.60
2014,07,05,05,16,12.60
2014,07,05,05,17,12.60
2014,07,05,05,18,12.60
2014,07,05,05,19,12.60
2014,07,05,05,20,12.60
2014,07,05,05,21,12.60
2014,07,05,05,22,12.60
2014,07,05,05,23,12.60
2014,07,05,05,24,12.60
2014,07,05,05,25,12.60
2014,07,05,05,26,12.60
2014,07,05,05,27,12.60
2014,07,05,05,28,12.60
2014,07,05,05,29,12.60
2014,07,05,05,30,12.60
2014,07,05,05,31,12.60
2014,07,05,05,32,12.60
2014,07,05,05,33,12.60
2014,07,05,05,34,12.60
2014,07,05,05,35,12.60
2014,07,05,05,36,12.60
2014,07,05,05,37,12.60
2014,07,05,05,38,12.60
2014,07,05,05,39,12.60
2014,07,05,05,40,12.60
2014,07,05,05,41,12.60
2014,07,05,05,42,12.60
2014,07,05,05,43,12.60
2014,07,05,05,44,12.60
2014,07,05,05,45,12.60
2014,07,05,05,46,12.60
2014,07,05,05,47,12.60
2014,07,05,05,48,12.60
2014,07,05,05,49,12.60
2014,07,05,05,50,12.60
2014,07,05,05,51,12.60
2014,07,05,05,52,12.60
2014,07,05,05,53,12.60
2014,07,05,05,54,12.60
2014,07,05,05,55,12.60
2014,07,05,05,56,12.60
2014,07,05,05,57,12.60
2014,07,05,05,58,12.60
2014,07,05,05,59,12.60
2014,07,05,06,00,12.60
2014,07,05,06,01,12.60
2014,07,05,06,02,12.60
2014,07,05,06,03,12.60
2014,07,05,06,04,12.60
2014,07,05,06,05,12.60
2014,07,05,06,06,12.60
2014,07,05,06,07,12.60
2014,07,05,06,08,12.70
2014,07,05,06,09,12.70
2014,07,05,06,10,12.70
2014,07,05,06,11,12.70
2014,07,05,06,12,12.70
2014,07,05,06,13,12.70
2014,07,05,06,14,12.70
2014,07,05,06,15,12.70
2014,07,05,06,16,12.70
2014,07,05,06,17,12.70
2014,07,05,06,18,12.70
2014,07,05,06,19,12.70
2014,07,05,06,20,12.70
2014,07,05,06,21,12.70
2014,07,05,06,22,12.70
2014,07,05,06,23,12.70
2014,07,05,06,24,12.70
2014,07,05,06,25,12.70
2014,07,05,06,26,12.70
2014,07,05,06,27,12.70
2014,07,05,06,28,12.70
2014,07,05,06,29,12.70
2014,07,05,06,30,12.70
2014,07,05,06,31,12.70
2014,07,05,06,32,12.70
2014,07,05,06,33,12.70
2014,07,05,06,34,12.70
2014,07,05,06,35,12.70
2014,07,05,06,36,12.70
2014,07,05,06,37,12.70
2014,07,05,06,38,12.70
2014,07,05,06,39,12.70
2014,07,05,06,40,12.70
2014,07,05,06,41,12.70
2014,07,05,06,42,12.70
2014,07,05,06,43,12.70
2014,07,05,06,44,12.70
2014,07,05,06,45,12.70
2014,07,05,06,46,12.70
2014,07,05,06,47,12.70
2014,07,05,06,48,12.70
2014,07,05,06,49,12.70
2014,07,05,06,50,12.70
2014,07,05,06,51,12.70
2014,07,05,06,52,12.70
2014,07,05,06,53,12.70
2014,07,05,06,54,12.70
2014,07,05,06,55,12.70
2014,07,05,06,56,12.70
2014,07,05,06,57,12.70
2014,07,05,06,58,12.80
2014,07,05,06,59,12.80
2014,07,05,07,00,12.80
2014,07,05,07,01,12.80
2014,07,05,07,02,12.80
2014,07,05,07,04,12.80
2014,07,05,07,05,12.80
2014,07,05,07,06,12.80
2014,07,05,07,07,12.80
2014,07,05,07,08,12.80
2014,07,05,07,09,12.90
2014,07,05,07,10,12.90
2014,07,05,07,11,12.90
2014,07,05,07,12,12.90
2014,07,05,07,13,12.90
2014,07,05,07,14,12.90
2014,07,05,07,15,12.90
2014,07,05,07,16,12.90
2014,07,05,07,17,12.90
2014,07,05,07,18,12.90
2014,07,05,07,19,13.00
2014,07,05,07,20,13.00
2014,07,05,07,21,13.00
2014,07,05,07,22,13.00
2014,07,05,07,23,13.00
2014,07,05,07,24,13.00
2014,07,05,07,25,13.00
2014,07,05,07,26,13.10
2014,07,05,07,27,13.10
2014,07,05,07,28,13.10
2014,07,05,07,29,13.10
2014,07,05,07,30,13.10
2014,07,05,07,31,13.10
2014,07,05,07,32,13.10
2014,07,05,07,33,13.10
2014,07,05,07,34,13.10
2014,07,05,07,35,13.10
2014,07,05,07,36,13.10
2014,07,05,07,37,13.10
2014,07,05,07,38,13.10
2014,07,05,07,39,13.10
2014,07,05,07,40,13.10
2014,07,05,07,41,13.20
2014,07,05,07,42,13.20
2014,07,05,07,43,13.20
2014,07,05,07,44,13.20
2014,07,05,07,45,13.20
2014,07,05,07,46,13.20
2014,07,05,07,47,13.20
2014,07,05,07,48,13.20
2014,07,05,07,49,13.20
2014,07,05,07,50,13.20
2014,07,05,07,51,13.30
2014,07,05,07,52,13.30
2014,07,05,07,53,13.30
2014,07,05,07,54,13.30
2014,07,05,07,55,13.30
2014,07,05,07,56,13.30
2014,07,05,07,57,13.30
2014,07,05,07,58,13.30
2014,07,05,08,00,13.40
2014,07,05,08,01,13.40
2014,07,05,08,02,13.40
2014,07,05,08,03,13.40
2014,07,05,08,04,13.40
2014,07,05,08,05,13.40
2014,07,05,08,06,13.40
2014,07,05,08,07,13.40
2014,07,05,08,08,13.40
2014,07,05,08,09,13.40
2014,07,05,08,10,13.40
2014,07,05,08,11,13.40
2014,07,05,08,12,13.40
2014,07,05,08,13,13.40
2014,07,05,08,14,13.40
2014,07,05,08,15,13.40
2014,07,05,08,16,13.40
2014,07,05,08,17,13.40
2014,07,05,08,18,13.40
2014,07,05,08,19,13.40
2014,07,05,08,20,13.50
2014,07,05,08,21,13.50
2014,07,05,08,22,13.40
2014,07,05,08,23,13.40
2014,07,05,08,24,13.40
2014,07,05,08,25,13.40
2014,07,05,08,26,13.40
2014,07,05,08,27,13.40
2014,07,05,08,28,13.40
2014,07,05,08,29,13.40
2014,07,05,08,30,13.40
2014,07,05,08,31,13.40
2014,07,05,08,32,13.40
2014,07,05,08,33,13.30
2014,07,05,08,34,13.30
2014,07,05,08,35,13.30
2014,07,05,08,36,13.30
2014,07,05,08,37,13.30
2014,07,05,08,38,13.30
2014,07,05,08,39,13.30
2014,07,05,08,40,13.30
2014,07,05,08,41,13.30
2014,07,05,08,42,13.30
2014,07,05,08,43,13.30
2014,07,05,08,44,13.30
2014,07,05,08,45,13.30
2014,07,05,08,46,13.30
2014,07,05,08,47,13.30
2014,07,05,08,48,13.30
2014,07,05,08,49,13.30
2014,07,05,08,50,13.30
2014,07,05,08,51,13.30
2014,07,05,08,52,13.30
2014,07,05,08,53,13.40
2014,07,05,08,54,13.40
2014,07,05,08,55,13.40
2014,07,05,08,56,13.40
2014,07,05,08,57,13.40
2014,07,05,08,58,13.40
2014,07,05,08,59,13.40
2014,07,05,09,00,13.40
2014,07,05,09,01,13.50
2014,07,05,09,02,13.50
2014,07,05,09,04,13.50
2014,07,05,09,05,13.40
2014,07,05,09,06,13.50
2014,07,05,09,07,13.50
2014,07,05,09,08,13.50
2014,07,05,09,09,13.50
2014,07,05,09,10,13.60
2014,07,05,09,11,13.60
2014,07,05,09,12,13.60
2014,07,05,09,13,13.60
2014,07,05,09,14,13.60
2014,07,05,09,15,13.60
2014,07,05,09,16,13.60
2014,07,05,09,18,13.60
2014,07,05,09,19,13.60
2014,07,05,09,20,13.60
2014,07,05,09,21,13.60
2014,07,05,09,22,13.60
2014,07,05,09,23,13.60
2014,07,05,09,24,13.60
2014,07,05,09,25,13.60
2014,07,05,09,26,13.60
2014,07,05,09,27,13.70
2014,07,05,09,28,13.70
2014,07,05,09,29,13.70
2014,07,05,09,30,13.70
2014,07,05,09,31,13.70
2014,07,05,09,32,13.70
2014,07,05,09,33,13.80
2014,07,05,09,34,13.80
2014,07,05,09,35,13.80
2014,07,05,09,36,13.80
2014,07,05,09,37,13.70
2014,07,05,09,38,13.70
2014,07,05,09,39,13.70
2014,07,05,09,40,13.80
2014,07,05,09,41,13.70
2014,07,05,09,42,13.70
2014,07,05,09,43,13.70
2014,07,05,09,44,13.70
2014,07,05,09,45,13.70
2014,07,05,09,46,13.80
2014,07,05,09,47,13.80
2014,07,05,09,48,13.80
2014,07,05,09,49,13.70
2014,07,05,09,50,13.80
2014,07,05,09,51,13.80
2014,07,05,09,52,13.80
2014,07,05,09,53,13.70
2014,07,05,09,54,13.70
2014,07,05,09,55,13.70
2014,07,05,09,56,13.80
2014,07,05,09,57,13.80
2014,07,05,09,58,13.80
2014,07,05,09,59,13.80
2014,07,05,10,00,13.80
2014,07,05,10,01,13.70
2014,07,05,10,02,13.70
2014,07,05,10,03,13.70
2014,07,05,10,04,13.70
2014,07,05,10,05,13.70
2014,07,05,10,06,13.70
2014,07,05,10,07,13.70
2014,07,05,10,08,13.70
2014,07,05,10,09,13.70
2014,07,05,10,10,13.70
2014,07,05,10,11,13.60
2014,07,05,10,12,13.60
2014,07,05,10,13,13.60
2014,07,05,10,14,13.60
2014,07,05,10,15,13.60
2014,07,05,10,16,13.50
2014,07,05,10,17,13.50
2014,07,05,10,18,13.50
2014,07,05,10,19,13.50
2014,07,05,10,20,13.50
2014,07,05,10,21,13.50
2014,07,05,10,22,13.50
2014,07,05,10,23,13.40
2014,07,05,10,24,13.40
2014,07,05,10,25,13.50
2014,07,05,10,26,13.40
2014,07,05,10,27,13.40
2014,07,05,10,28,13.50
2014,07,05,10,29,13.50
2014,07,05,10,30,13.50
2014,07,05,10,31,13.50
2014,07,05,10,32,13.50
2014,07,05,10,33,13.60
2014,07,05,10,34,13.60
2014,07,05,10,35,13.50
2014,07,05,10,36,13.50
2014,07,05,10,37,13.50
2014,07,05,10,38,13.50
2014,07,05,10,39,13.50
2014,07,05,10,40,13.50
2014,07,05,10,41,13.50
2014,07,05,10,42,13.50
2014,07,05,10,43,13.50
2014,07,05,10,44,13.60
2014,07,05,10,45,13.60
2014,07,05,10,46,13.60
2014,07,05,10,47,13.60
2014,07,05,10,48,13.60
2014,07,05,10,49,13.50
2014,07,05,10,50,13.50
2014,07,05,10,51,13.40
2014,07,05,10,52,13.40
2014,07,05,10,53,13.40
2014,07,05,10,54,13.40
2014,07,05,10,55,13.40
2014,07,05,10,56,13.40
2014,07,05,10,57,13.40
2014,07,05,10,58,13.40
2014,07,05,10,59,13.40
2014,07,05,11,00,13.40
2014,07,05,11,01,13.40
2014,07,05,11,02,13.40
2014,07,05,11,03,13.40
2014,07,05,11,04,13.40
2014,07,05,11,05,13.40
2014,07,05,11,06,13.40
2014,07,05,11,07,13.40
2014,07,05,11,08,13.40
2014,07,05,11,09,13.40
2014,07,05,11,10,13.40
2014,07,05,11,11,13.30
2014,07,05,11,12,13.40
2014,07,05,11,13,13.40
2014,07,05,11,14,13.40
2014,07,05,11,15,13.40
2014,07,05,11,16,13.40
2014,07,05,11,17,13.40
2014,07,05,11,18,13.40
2014,07,05,11,19,13.40
2014,07,05,11,20,13.40
2014,07,05,11,21,13.50
2014,07,05,11,22,13.50
2014,07,05,11,23,13.60
2014,07,05,11,24,13.60
2014,07,05,11,25,13.60
2014,07,05,11,26,13.60
2014,07,05,11,27,13.60
2014,07,05,11,28,13.50
2014,07,05,11,29,13.60
2014,07,05,11,30,13.50
2014,07,05,11,31,13.50
2014,07,05,11,32,13.50
2014,07,05,11,33,13.50
2014,07,05,11,34,13.50
2014,07,05,11,35,13.60
2014,07,05,11,36,13.60
2014,07,05,11,37,13.60
2014,07,05,11,38,13.60
2014,07,05,11,39,13.60
2014,07,05,11,40,13.60
2014,07,05,11,41,13.60
2014,07,05,11,42,13.60
2014,07,05,11,43,13.60
2014,07,05,11,44,13.70
2014,07,05,11,45,13.70
2014,07,05,11,46,13.70
2014,07,05,11,47,13.80
2014,07,05,11,48,13.80
2014,07,05,11,49,13.80
2014,07,05,11,50,13.80
2014,07,05,11,51,13.90
2014,07,05,11,52,13.90
2014,07,05,11,53,13.90
2014,07,05,11,54,14.00
2014,07,05,11,55,14.00
2014,07,05,11,56,14.00
2014,07,05,11,57,14.00
2014,07,05,11,58,14.10
2014,07,05,11,59,14.10
2014,07,05,12,00,14.00
2014,07,05,12,01,14.10
2014,07,05,12,02,14.10
2014,07,05,12,03,14.10
2014,07,05,12,04,14.10
2014,07,05,12,05,14.10
2014,07,05,12,06,14.10
2014,07,05,12,07,14.20
2014,07,05,12,08,14.20
2014,07,05,12,09,14.20
2014,07,05,12,10,14.20
2014,07,05,12,11,14.20
2014,07,05,12,12,14.20
2014,07,05,12,13,14.20
2014,07,05,12,14,14.30
2014,07,05,12,15,14.30
2014,07,05,12,16,14.30
2014,07,05,12,17,14.30
2014,07,05,12,18,14.30
2014,07,05,12,19,14.30
2014,07,05,12,20,14.30
2014,07,05,12,21,14.30
2014,07,05,12,22,14.30
2014,07,05,12,23,14.30
2014,07,05,12,24,14.30
2014,07,05,12,25,14.40
2014,07,05,12,26,14.40
2014,07,05,12,27,14.40
2014,07,05,12,29,14.50
2014,07,05,12,30,14.50
2014,07,05,12,31,14.60
2014,07,05,12,32,14.60
2014,07,05,12,33,14.70
2014,07,05,12,34,14.70
2014,07,05,12,35,14.70
2014,07,05,12,37,14.80
2014,07,05,12,39,14.90
2014,07,05,12,40,14.90
2014,07,05,12,41,14.90
2014,07,05,12,42,15.00
2014,07,05,12,43,15.00
2014,07,05,12,44,15.10
2014,07,05,12,45,15.10
2014,07,05,12,46,15.10
2014,07,05,12,47,15.20
2014,07,05,12,48,15.20
2014,07,05,12,49,15.20
2014,07,05,12,51,15.30
2014,07,05,12,52,15.30
2014,07,05,12,53,15.40
2014,07,05,12,54,15.40
2014,07,05,12,55,15.40
2014,07,05,12,56,15.50
2014,07,05,12,57,15.50
2014,07,05,12,58,15.40
2014,07,05,12,59,15.40
2014,07,05,13,00,15.40
2014,07,05,13,01,15.40
2014,07,05,13,02,15.40
2014,07,05,13,03,15.40
2014,07,05,13,04,15.50
2014,07,05,13,05,15.50
2014,07,05,13,06,15.50
2014,07,05,13,07,15.50
2014,07,05,13,08,15.60
2014,07,05,13,09,15.60
2014,07,05,13,10,15.60
2014,07,05,13,11,15.60
2014,07,05,13,12,15.60
2014,07,05,13,13,15.60
2014,07,05,13,14,15.60
2014,07,05,13,15,15.60
2014,07,05,13,16,15.70
2014,07,05,13,17,15.70
2014,07,05,13,18,15.70
2014,07,05,13,19,15.70
2014,07,05,13,20,15.70
2014,07,05,13,21,15.70
2014,07,05,13,22,15.70
2014,07,05,13,23,15.70
2014,07,05,13,24,15.70
2014,07,05,13,25,15.70
2014,07,05,13,26,15.70
2014,07,05,13,28,15.70
2014,07,05,13,29,15.70
2014,07,05,13,30,15.70
2014,07,05,13,31,15.80
2014,07,05,13,32,15.80
2014,07,05,13,33,15.80
2014,07,05,13,34,15.70
2014,07,05,13,35,15.70
2014,07,05,13,36,15.70
2014,07,05,13,37,15.70
2014,07,05,13,38,15.70
2014,07,05,13,39,15.70
2014,07,05,13,40,15.70
2014,07,05,13,41,15.70
2014,07,05,13,42,15.70
2014,07,05,13,43,15.70
2014,07,05,13,44,15.80
2014,07,05,13,45,15.80
2014,07,05,13,46,15.80
2014,07,05,13,47,15.80
2014,07,05,13,48,15.80
2014,07,05,13,49,15.80
2014,07,05,13,50,15.80
2014,07,05,13,51,15.80
2014,07,05,13,52,15.80
2014,07,05,13,53,15.80
2014,07,05,13,54,15.80
2014,07,05,13,55,15.80
2014,07,05,13,56,15.90
2014,07,05,13,57,15.90
2014,07,05,13,58,15.90
2014,07,05,13,59,15.90
2014,07,05,14,00,15.90
2014,07,05,14,01,15.90
2014,07,05,14,02,15.90
2014,07,05,14,03,15.90
2014,07,05,14,04,15.90
2014,07,05,14,05,15.90
2014,07,05,14,06,15.90
2014,07,05,14,07,15.90
2014,07,05,14,08,15.90
2014,07,05,14,09,15.90
2014,07,05,14,10,15.90
2014,07,05,14,11,15.90
2014,07,05,14,12,16.00
2014,07,05,14,13,16.10
2014,07,05,14,14,16.10
2014,07,05,14,15,16.10
2014,07,05,14,16,16.10
2014,07,05,14,17,16.20
2014,07,05,14,18,16.20
2014,07,05,14,19,16.20
2014,07,05,14,20,16.20
2014,07,05,14,21,16.30
2014,07,05,14,22,16.30
2014,07,05,14,23,16.40
2014,07,05,14,24,16.40
2014,07,05,14,25,16.40
2014,07,05,14,26,16.40
2014,07,05,14,27,16.50
2014,07,05,14,28,16.50
2014,07,05,14,29,16.60
2014,07,05,14,30,16.60
2014,07,05,14,31,16.60
2014,07,05,14,32,16.70
2014,07,05,14,33,16.70
2014,07,05,14,34,16.70
2014,07,05,14,35,16.70
2014,07,05,14,36,16.70
2014,07,05,14,37,16.70
2014,07,05,14,38,16.70
2014,07,05,14,39,16.70
2014,07,05,14,40,16.70
2014,07,05,14,41,16.80
2014,07,05,14,42,16.80
2014,07,05,14,43,16.80
2014,07,05,14,44,16.80
2014,07,05,14,45,16.80
2014,07,05,14,46,16.80
2014,07,05,14,47,16.80
2014,07,05,14,48,16.80
2014,07,05,14,49,16.80
2014,07,05,14,50,16.90
2014,07,05,14,51,16.90
2014,07,05,14,52,16.90
2014,07,05,14,53,16.90
2014,07,05,14,54,16.90
2014,07,05,14,55,16.90
2014,07,05,14,56,16.90
2014,07,05,14,57,16.90
2014,07,05,14,58,16.90
2014,07,05,14,59,16.90
2014,07,05,15,00,16.90
2014,07,05,15,01,16.90
2014,07,05,15,03,16.90
2014,07,05,15,04,17.00
2014,07,05,15,05,17.00
2014,07,05,15,06,17.10
2014,07,05,15,07,17.10
2014,07,05,15,08,17.10
2014,07,05,15,09,17.10
2014,07,05,15,10,17.20
2014,07,05,15,11,17.20
2014,07,05,15,12,17.20
2014,07,05,15,13,17.20
2014,07,05,15,14,17.20
2014,07,05,15,15,17.20
2014,07,05,15,16,17.20
2014,07,05,15,17,17.20
2014,07,05,15,18,17.20
2014,07,05,15,19,17.20
2014,07,05,15,20,17.20
2014,07,05,15,21,17.20
2014,07,05,15,22,17.20
2014,07,05,15,23,17.20
2014,07,05,15,24,17.20
2014,07,05,15,25,17.10
2014,07,05,15,26,17.10
2014,07,05,15,27,17.10
2014,07,05,15,28,17.10
2014,07,05,15,29,17.10
2014,07,05,15,30,17.10
2014,07,05,15,31,17.10
2014,07,05,15,32,17.10
2014,07,05,15,33,17.10
2014,07,05,15,34,17.10
2014,07,05,15,35,17.10
2014,07,05,15,36,17.10
2014,07,05,15,37,17.10
2014,07,05,15,38,17.10
2014,07,05,15,39,17.10
2014,07,05,15,40,17.10
2014,07,05,15,41,17.10
2014,07,05,15,42,17.10
2014,07,05,15,43,17.10
2014,07,05,15,44,17.10
2014,07,05,15,45,17.10
2014,07,05,15,46,17.10
2014,07,05,15,47,17.10
2014,07,05,15,48,17.10
2014,07,05,15,49,17.20
2014,07,05,15,50,17.20
2014,07,05,15,51,17.20
2014,07,05,15,52,17.30
2014,07,05,15,54,17.30
2014,07,05,15,55,17.30
2014,07,05,15,56,17.30
2014,07,05,15,57,17.30
2014,07,05,15,58,17.30
2014,07,05,15,59,17.40
2014,07,05,16,00,17.40
2014,07,05,16,01,17.40
2014,07,05,16,02,17.40
2014,07,05,16,03,17.40
2014,07,05,16,04,17.40
2014,07,05,16,05,17.30
2014,07,05,16,06,17.30
2014,07,05,16,07,17.30
2014,07,05,16,08,17.30
2014,07,05,16,09,17.30
2014,07,05,16,10,17.30
2014,07,05,16,11,17.30
2014,07,05,16,12,17.20
2014,07,05,16,13,17.20
2014,07,05,16,14,17.20
2014,07,05,16,15,17.20
2014,07,05,16,16,17.30
2014,07,05,16,17,17.30
2014,07,05,16,18,17.30
2014,07,05,16,19,17.30
2014,07,05,16,20,17.30
2014,07,05,16,21,17.20
2014,07,05,16,22,17.20
2014,07,05,16,23,17.20
2014,07,05,16,24,17.20
2014,07,05,16,25,17.20
2014,07,05,16,26,17.20
2014,07,05,16,27,17.20
2014,07,05,16,29,17.20
2014,07,05,16,30,17.20
2014,07,05,16,31,17.20
2014,07,05,16,32,17.20
2014,07,05,16,33,17.20
2014,07,05,16,34,17.30
2014,07,05,16,35,17.30
2014,07,05,16,36,17.30
2014,07,05,16,37,17.30
2014,07,05,16,38,17.30
2014,07,05,16,39,17.30
2014,07,05,16,40,17.30
2014,07,05,16,41,17.30
2014,07,05,16,42,17.30
2014,07,05,16,43,17.30
2014,07,05,16,44,17.40
2014,07,05,16,45,17.30
2014,07,05,16,46,17.30
2014,07,05,16,47,17.40
2014,07,05,16,48,17.40
2014,07,05,16,49,17.40
2014,07,05,16,50,17.40
2014,07,05,16,51,17.50
2014,07,05,16,52,17.60
2014,07,05,16,53,17.60
2014,07,05,16,54,17.60
2014,07,05,16,55,17.70
2014,07,05,16,56,17.70
2014,07,05,16,57,17.70
2014,07,05,16,58,17.70
2014,07,05,16,59,17.70
2014,07,05,17,00,17.70
2014,07,05,17,01,17.90
2014,07,05,17,02,17.90
2014,07,05,17,03,17.90
2014,07,05,17,04,18.00
2014,07,05,17,05,18.00
2014,07,05,17,06,17.90
2014,07,05,17,07,17.90
2014,07,05,17,08,17.90
2014,07,05,17,09,17.80
2014,07,05,17,10,17.80
2014,07,05,17,11,17.70
2014,07,05,17,12,17.70
2014,07,05,17,13,17.60
2014,07,05,17,14,17.60
2014,07,05,17,15,17.60
2014,07,05,17,16,17.60
2014,07,05,17,17,17.60
2014,07,05,17,18,17.50
2014,07,05,17,19,17.50
2014,07,05,17,20,17.50
2014,07,05,17,21,17.60
2014,07,05,17,22,17.60
2014,07,05,17,23,17.60
2014,07,05,17,24,17.60
2014,07,05,17,25,17.60
2014,07,05,17,26,17.60
2014,07,05,17,27,17.70
2014,07,05,17,28,17.70
2014,07,05,17,29,17.70
2014,07,05,17,30,17.80
2014,07,05,17,31,17.80
2014,07,05,17,32,17.80
2014,07,05,17,33,17.90
2014,07,05,17,34,17.90
2014,07,05,17,35,18.00
2014,07,05,17,36,18.00
2014,07,05,17,37,18.10
2014,07,05,17,38,18.10